Weather History for Montreal Mirabel, QC

Change the Weather History Date:

Saturday, December 1, 2012

  Actual Average Record
Temperature  
Mean Temperature 10 °F -  
Max Temperature 21 °F 32 °F 60 °F (1998)
Min Temperature 1 °F 19 °F -4 °F (2007)
Degree Days  
Heating Degree Days 55    
Moisture  
Dew Point 5 °F    
Average Humidity 75    
Maximum Humidity 85    
Minimum Humidity 67    
Precipitation  
Precipitation 0.00 in - - ()
Sea Level Pressure  
Sea Level Pressure 30.55 in    
Wind  
Wind Speed 6 mph ()    
Max Wind Speed 12 mph    
Max Gust Speed 21 mph    
Visibility 18.2 miles    
Events Snow    
Averages and records for this station are not official NWS values.
T = Trace of Precipitation, MM = Missing Value Source: Averaged Metar Reports

Daily Weather History Graph

Daily Weather History Graph

Search for Another Location

Airport:

Trip Planner

Search our weather history database for the weather conditions in past years. The results will help you decide how hot, cold, wet, or windy it might be!

Date:

Astronomy

Dec. 01, 2012 Rise Set
Actual Time 7:17 AM EST 4:13 PM EST
Civil Twilight 6:43 AM EST 4:47 PM EST
Nautical Twilight 6:06 AM EST 5:24 PM EST
Astronomical Twilight 5:30 AM EST 6:00 PM EST
Moon 7:03 PM EST (12/1) 9:26 AM EST (12/1)
Length of Visible Light 10h 03m
Length of Day
8h 56m
Waning Gibbous, 92% of the Moon is Illuminated
Dec 1
Waning Gibbous
Dec 6
Last Quarter
Dec 13
New
Dec 20
First Quarter
Dec 28
Full

Hourly Weather History & Observations

Time (EST) Temp. Windchill Dew Point Humidity Pressure Visibility Wind Dir Wind Speed Gust Speed Precip Events Conditions
12:00 AM 3.2 °F -4.2 °F -2.2 °F 78% 30.66 in 25.0 mi NNE 3.5 mph - N/A   Partly Cloudy
1:00 AM 1.4 °F -8.3 °F -4.0 °F 78% 30.64 in 25.0 mi ENE 4.6 mph - N/A   Partly Cloudy
2:00 AM 1.4 °F -8.3 °F -2.2 °F 85% 30.63 in 25.0 mi ENE 4.6 mph - N/A   Partly Cloudy
3:00 AM 3.2 °F -6.2 °F -2.2 °F 78% 30.63 in 25.0 mi NE 4.6 mph - N/A   Partly Cloudy
4:00 AM 1.4 °F -6.2 °F -4.0 °F 78% 30.62 in 25.0 mi NE 3.5 mph - N/A   Scattered Clouds
5:00 AM 5.0 °F -2.1 °F -2.2 °F 72% 30.64 in 25.0 mi NNE 3.5 mph - N/A   Mostly Cloudy
6:00 AM 6.8 °F -3.5 °F -0.4 °F 72% 30.63 in 25.0 mi NE 5.8 mph - N/A   Mostly Cloudy
7:00 AM 8.6 °F -3.7 °F 1.4 °F 73% 30.63 in 25.0 mi ENE 8.1 mph - N/A   Overcast
8:00 AM 8.6 °F -5.5 °F 3.2 °F 79% 30.64 in 20.0 mi ENE 10.4 mph 17.3 mph N/A   Overcast
9:00 AM 8.6 °F -6.3 °F 5.0 °F 85% 30.63 in 20.0 mi NE 11.5 mph 20.7 mph N/A   Overcast
10:00 AM 10.4 °F -4.1 °F 5.0 °F 79% 30.62 in 25.0 mi NE 11.5 mph 19.6 mph N/A Snow Light Snow
11:00 AM 10.4 °F -3.3 °F 5.0 °F 79% 30.59 in 25.0 mi NE 10.4 mph 19.6 mph N/A Snow Light Snow
12:00 PM 12.2 °F -0.2 °F 5.0 °F 73% 30.56 in 20.0 mi NE 9.2 mph 18.4 mph N/A   Overcast
1:00 PM 14.0 °F 0.5 °F 5.0 °F 67% 30.54 in 20.0 mi NE 11.5 mph 17.3 mph N/A   Overcast
2:00 PM 14.0 °F 2.0 °F 5.0 °F 67% 30.52 in 15.0 mi ENE 9.2 mph - N/A   Overcast
3:00 PM 14.0 °F 1.2 °F 5.0 °F 67% 30.52 in 15.0 mi NE 10.4 mph 17.3 mph N/A   Overcast
4:00 PM 15.8 °F 5.1 °F 8.6 °F 73% 30.52 in 15.0 mi NE 8.1 mph 18.4 mph N/A   Overcast
5:00 PM 15.8 °F 6.1 °F 8.6 °F 73% 30.49 in 15.0 mi NE 6.9 mph - N/A   Overcast
6:00 PM 15.8 °F 4.2 °F 8.6 °F 73% 30.48 in 20.0 mi NE 9.2 mph - N/A   Overcast
7:00 PM 17.6 °F 7.3 °F 10.4 °F 73% 30.47 in 20.0 mi NE 8.1 mph - N/A   Overcast
8:00 PM 17.6 °F 7.3 °F 10.4 °F 73% 30.45 in 20.0 mi NE 8.1 mph - N/A   Overcast
9:00 PM 19.4 °F 9.5 °F 12.2 °F 74% 30.41 in 25.0 mi NE 8.1 mph - N/A   Overcast
10:00 PM 19.4 °F 10.4 °F 14.0 °F 80% 30.38 in 25.0 mi NE 6.9 mph - N/A   Overcast
11:00 PM 21.2 °F 13.6 °F 14.0 °F 74% 30.35 in 25.0 mi NE 5.8 mph - N/A   Overcast